Regional Weather Roundup
Issued by NWS San Angelo, TX

Home | Current Version | Previous Version | Text Only | Print | Product List | Glossary On
Versions: 1 2 3 4 5 6 7 8 9 10 11 12 13 14 15 16 17 18 19 20 21 22 23 24 25 26 27 28 29 30 31 32 33 34 35 36 37 38 39 40 41 42 43 44 45 46 47 48 49 50
000
ASUS44 KSJT 301458
RWRSJT
WEST CENTRAL TEXAS REGIONAL WEATHER ROUNDUP
NATIONAL WEATHER SERVICE SAN ANGELO TX
1000 AM CDT TUE JUN 30 2015

NOTE: "FAIR" INDICATES FEW OR NO CLOUDS BELOW 12,000 FEET WITH NO
SIGNIFICANT WEATHER AND/OR OBSTRUCTIONS TO VISIBILITY.

TXZ049-054-064>066-071>073-076>078-098-099-113-114-127-128-139-140-
154-155-168>170-301600
...LOCATIONS ACROSS WEST CENTRAL TEXAS...

CITY           SKY/WX    TMP DP  RH WIND       PRES   REMARKS
SAN ANGELO     PTSUNNY   73  65  75 E3        30.11F
ABILENE        MOSUNNY   81  66  60 CALM      30.10R
DYESS AFB      NOT AVBL
JUNCTION       PTSUNNY   79  70  74 S9        30.11R
SWEETWATER     NOT AVBL
BROWNWOOD      NOT AVBL
COLEMAN        NOT AVBL
SONORA         NOT AVBL
OZONA          NOT AVBL
BRADY          NOT AVBL
$$

TEXAS PANHANDLE/OKLAHOMA PANHANDLE

CITY           SKY/WX    TMP DP  RH WIND       PRES   REMARKS
AMARILLO       SUNNY     74  58  57 S14       30.18S
BORGER         SUNNY     78  59  51 SW12      30.15R
CANADIAN       NOT AVBL
DALHART        SUNNY     78  58  49 S10       30.20S
DUMAS          NOT AVBL
GUYMON         NOT AVBL
HEREFORD       NOT AVBL
PAMPA          NOT AVBL
PERRYTON       NOT AVBL
$$

SOUTHERN PANHANDLE/SOUTH PLAINS/ROLLING PLAINS

CITY           SKY/WX    TMP DP  RH WIND       PRES   REMARKS
LUBBOCK        PTSUNNY   71  63  75 W13       30.15R
SNYDER         NOT AVBL
CHILDRESS      SUNNY     77  63  61 W12       30.09R
SEMINOLE       NOT AVBL
$$

PERMIAN BASIN

CITY           SKY/WX    TMP DP  RH WIND       PRES   REMARKS
MIDLAND        CLOUDY    68  63  84 SW10      30.11R
ODESSA         CLOUDY    67  62  84 SW8       30.12S
WINK           PTSUNNY   70  62  76 CALM      30.11S
$$

FAR WEST/SOUTHWEST MOUNTAINS/TRANS PECOS

CITY           SKY/WX    TMP DP  RH WIND       PRES   REMARKS
ALPINE         NOT AVBL
DRYDEN           N/A     77  63  61 N13G22    30.09S
EL PASO        MOSUNNY   80  56  43 NE6       30.14S
FORT STOCKTON  PTSUNNY   71  57  61 SE8       30.14R
GUADALUPE PASS CLOUDY    62  58  86 NE16      30.29S
MARFA          NOT AVBL
PECOS          NOT AVBL
$$

DALLAS/FORT WORTH METROPLEX

CITY           SKY/WX    TMP DP  RH WIND       PRES   REMARKS
DFW AIRPORT    PTSUNNY   83  68  60 S15       30.03F
FTW MEACHAM    SUNNY     83  70  64 S12       30.04F
DAL-EXECUTIVE  SUNNY     82  67  60 VRB5      30.03F
GRAND PRAIRIE  SUNNY     82  66  57 SW7       30.05S
ADDISON        NOT AVBL
MESQUITE       SUNNY     81  66  61 SW7       30.03F
LANCASTER      NOT AVBL
$$

NORTH CENTRAL TEXAS

CITY           SKY/WX    TMP DP  RH WIND       PRES   REMARKS
SHRMAN/DENISON NOT AVBL
GAINESVILLE    NOT AVBL
BRIDGEPORT     NOT AVBL
DENTON         SUNNY     83  72  69 S14       30.03F
WAXAHACHIE     NOT AVBL
GRANBURY       NOT AVBL
$$

WESTERN NORTH TEXAS

CITY           SKY/WX    TMP DP  RH WIND       PRES   REMARKS
WICHITA FALLS  SUNNY     80  65  59 SW8       30.04R
VERNON         NOT AVBL
BRECKENRIDGE   NOT AVBL
COMANCHE       NOT AVBL
$$

CENTRAL AND SOUTH CENTRAL TEXAS

CITY           SKY/WX    TMP DP  RH WIND       PRES   REMARKS
AUSTIN/BERGSTM CLOUDY    80  76  87 S3        30.07R
WACO           CLOUDY    74  70  87 S14       30.06F
HILLSBORO      NOT AVBL
TEMPLE         NOT AVBL
KILLEEN-GRAY   NOT AVBL
FORT HOOD      NOT AVBL
GEORGETOWN     NOT AVBL
LAGO VISTA     NOT AVBL
SAN MARCOS     PTSUNNY   82  73  74 S5        30.08R FOG
NEW BRAUNFELS  PTSUNNY   84  74  71 SW7       30.06R
RANDOLPH AFB   MOSUNNY   84  75  74 S13       30.06S
SAN ANTONIO    PTSUNNY   83  73  72 S12       30.07R
STINSON        PTSUNNY   82  74  76 S9        30.04S
PLEASANTON     NOT AVBL
LA GRANGE      NOT AVBL
GIDDINGS       NOT AVBL
$$

EAST TEXAS

CITY           SKY/WX    TMP DP  RH WIND       PRES   REMARKS
PARIS          NOT AVBL
CLARKSVILLE    NOT AVBL
TYLER          PTSUNNY   80  66  62 SW9       30.05S
LONGVIEW       MOSUNNY   85  73  67 SW9       30.03F
PALESTINE      NOT AVBL
NACOGDOCHES    NOT AVBL
$$

TEXAS HILL COUNTRY AND EDWARDS PLATEAU

CITY           SKY/WX    TMP DP  RH WIND       PRES   REMARKS
LLANO          NOT AVBL
HORSESHOE BAY  NOT AVBL
KERRVILLE      NOT AVBL
FREDERICKSBRG  NOT AVBL
ROCKSPRINGS    NOT AVBL
HONDO          PTSUNNY   80  74  81 S10       30.09R
UVALDE         NOT AVBL
DEL RIO        CLOUDY    79  74  84 SE7       30.04S
$$

SOUTHEAST TEXAS

CITY           SKY/WX    TMP DP  RH WIND       PRES   REMARKS
COLLEGE STN    CLOUDY    80  77  90 NW6       30.08R
CALDWELL       NOT AVBL
CROCKETT       NOT AVBL
BRENHAM        NOT AVBL
HUNTSVILLE     MOSUNNY   82  76  81 W5        30.08R
CONROE         MOSUNNY   84  74  71 VRB6      30.07R
HOUSTON BUSH   PTSUNNY   87  75  67 W8        30.05S
HOUSTON HOBBY  PTSUNNY   87  75  67 SW12      30.04S
PERLAND        MOSUNNY   86  76  71 SW7       30.06S
WHARTON        NOT AVBL
$$

THE UPPER TEXAS COAST

CITY           SKY/WX    TMP DP  RH WIND       PRES   REMARKS
ORANGE         NOT AVBL
PORT ARTHUR    PTSUNNY   86  79  79 NW5       30.05S
GALVESTON      MOSUNNY   87  79  76 SW10      30.05S
ANGLETON       MOSUNNY   87  78  74 S8        30.04F
BAY CITY       NOT AVBL
$$

TEXAS COASTAL BEND, RIO GRANDE PLAINS DEEP SOUTH TEXAS

CITY           SKY/WX    TMP DP  RH WIND       PRES   REMARKS
VICTORIA       MOSUNNY   86  77  74 S10       30.04R
BEEVILLE       NOT AVBL
ROCKPORT       SUNNY     87  75  67 SE12      30.02R
PORT ARANSAS   NOT AVBL
PORT LAVACA    NOT AVBL
CORPUS CHRISTI PTSUNNY   87  76  69 SE14      30.02R
KINGSVILLE NAS PTSUNNY   87  80  79 SE18      30.02R
COTULLA        MOSUNNY   84  75  74 S9        30.03R
LAREDO         NOT AVBL
BROWNSVILLE    LGT RAIN  75  72  90 S17G28    30.06R FOG
PORT ISABEL    LGT RAIN  76  71  85 S29G51    30.06R
HEBBRONVILLE   NOT AVBL
MCALLEN        PTSUNNY   84  72  67 S22       30.03R
WESLACO        NOT AVBL
FALFURRIAS     NOT AVBL
EDINBURG       NOT AVBL
$$


USA.gov is the U.S. government's official web portal to all federal, state and local government web resources and services.